Simultaneous Nadir Overpasses (SNOs) Predictions

Prediction of SNOs between LANDSAT-8 and NOAA-19 Satellite Orbit:

Table of predicted SNOs for the next 14.0 days since TLE Epoch: 5/14/2016
Index Date (LANDSAT-8) Time (LANDSAT-8) Lat,Lon (LANDSAT-8) SZA (LANDSAT-8 ) Date (NOAA-19) Time (NOAA-19) Lat,Lon (NOAA-19) SZA (NOAA-19 ) Distance(km) Time Diff (sec)
1 05/15/2016 14:46:14 -74.63, 142.93 124.45 05/15/2016 14:45:30 -74.61, 142.89 124.46 1.94 44
2 05/15/2016 15:35:41 74.55, -49.61 55.47 05/15/2016 15:36:26 74.54, -49.64 55.46 1.47 45
3 05/17/2016 20:19:59 74.59,-120.60 55.01 05/17/2016 20:19:31 74.59,-120.50 55.02 3.03 28
4 05/17/2016 21:09:28 -74.52, 46.87 125.07 05/17/2016 21:10:34 -74.53, 46.90 125.05 1.71 66
5 05/20/2016 01:53:45 -74.60, -23.99 125.45 05/20/2016 01:53:39 -74.60, -24.02 125.45 0.64 6
6 05/20/2016 02:43:19 74.16, 142.59 54.08 05/20/2016 02:44:27 74.11, 144.57 54.10 60.51 68
7 05/22/2016 06:38:00 -74.79, -94.61 125.70 05/22/2016 06:36:48 -74.87, -95.50 125.65 27.35 72
8 05/22/2016 07:27:29 74.60, 72.57 54.10 05/22/2016 07:27:41 74.60, 72.53 54.10 1.09 12
9 05/24/2016 12:11:46 74.67, 1.68 53.77 05/24/2016 12:10:46 74.66, 1.64 53.75 1.80 60
10 05/24/2016 13:01:16 -74.56, 169.04 126.36 05/24/2016 13:01:47 -74.57, 169.14 126.35 3.12 31
11 05/26/2016 17:45:33 -74.63, 98.14 126.67 05/26/2016 17:44:52 -74.66, 98.17 126.65 2.76 41




NCC Satellite Simultaneous Nadir Overpasses (SNOs) Prediction Service
